Helsinki, Finland

10:39 PM EET on December 03, 2016 (GMT +0200)
Vantaa

Weather History for EFHK - February, 2013

Change the Weather History Date:

Tuesday, February 26, 2013

  Actual Average Record
Temperature  
Mean Temperature 24 °F -  
Max Temperature 35 °F 32 °F 39 °F (2008)
Min Temperature 12 °F 17 °F -5 °F (2001)
Degree Days  
Heating Degree Days 42    
Moisture  
Dew Point 22 °F    
Average Humidity 84    
Maximum Humidity 100    
Minimum Humidity 70    
Precipitation  
Precipitation 0.00 in 0.04 in - ()
Sea Level Pressure  
Sea Level Pressure 30.33 in    
Wind  
Wind Speed 6 mph ()    
Max Wind Speed 13 mph    
Max Gust Speed -    
Visibility 3.6 miles    
Events Fog    
Averages and records for this station are not official NWS values.
T = Trace of Precipitation, MM = Missing Value Source: Averaged Metar Reports

Daily Weather History Graph

Daily Weather History Graph

Search for Another Location

Airport or City:

Trip Planner

Search our weather history database for the weather conditions in past years. The results will help you decide how hot, cold, wet, or windy it might be!

Date:

Astronomy

Feb. 26, 2013 Rise Set
Actual Time 7:27 AM EET 5:39 PM EET
Civil Twilight 6:45 AM EET 6:21 PM EET
Nautical Twilight 5:56 AM EET 7:10 PM EET
Astronomical Twilight 5:07 AM EET 7:59 PM EET
Moon 7:04 PM EET (2/26) 6:59 AM EET (2/26)
Length of Visible Light 11h 36m
Length of Day
10h 11m
Full, 100% of the Moon is Illuminated
Feb 26
Full
Mar 4
Last Quarter
Mar 11
New
Mar 19
First Quarter
Mar 27
Full

Hourly Weather History & Observations

Time (EET) Temp. Windchill Dew Point Humidity Pressure Visibility Wind Dir Wind Speed Gust Speed Precip Events Conditions
12:20 AM 17.6 °F 12.3 °F 15.8 °F 93% 30.51 in 6.2 mi West 3.5 mph - N/A Fog Shallow Fog
12:50 AM 14.0 °F - 12.2 °F 93% 30.51 in 6.2 mi West 2.3 mph - N/A Fog Shallow Fog
1:20 AM 15.8 °F 8.6 °F 14.0 °F 93% 30.51 in 6.2 mi WSW 4.6 mph - N/A Fog Shallow Fog
1:50 AM 21.2 °F - 19.4 °F 93% 30.51 in 6.2 mi West 2.3 mph - N/A Fog Shallow Fog
2:00 AM 18 °F - 17 °F 93% 30.54 in 12 mi West 6.7 mph - - Fog Patches of Fog
2:20 AM 12.2 °F 6.1 °F 10.4 °F 92% 30.48 in 6.2 mi WSW 3.5 mph - N/A Fog Shallow Fog
2:50 AM 17.6 °F 10.7 °F 14.0 °F 86% 30.48 in 6.2 mi West 4.6 mph - N/A Fog Shallow Fog
3:20 AM 12.2 °F - 10.4 °F 92% 30.48 in 0.6 mi WSW 2.3 mph - N/A Fog Light Freezing Fog
3:50 AM 12.2 °F 4.3 °F 8.6 °F 85% 30.48 in 0.9 mi WSW 4.6 mph - N/A Fog Shallow Fog
4:20 AM 14.0 °F - 10.4 °F 86% 30.48 in 0.7 mi West 2.3 mph - N/A Fog Shallow Fog
4:50 AM 10.4 °F 4.0 °F 8.6 °F 92% 30.48 in 0.5 mi WSW 3.5 mph - N/A Fog Light Freezing Fog
5:20 AM 12.2 °F - 8.6 °F 85% 30.45 in 0.2 mi WSW 2.3 mph - N/A Fog Light Freezing Fog
5:50 AM 14.0 °F 5.1 °F 12.2 °F 93% 30.45 in 3.1 mi SW 5.8 mph - N/A Fog Shallow Fog
6:20 AM 17.6 °F 10.7 °F 15.8 °F 93% 30.45 in 3.1 mi WSW 4.6 mph - N/A Fog Shallow Fog
6:50 AM 15.8 °F 8.6 °F 12.2 °F 86% 30.42 in 0.5 mi West 4.6 mph - N/A Fog Light Freezing Fog
7:20 AM 15.8 °F 8.6 °F 14.0 °F 93% 30.42 in 0.3 mi West 4.6 mph - N/A Fog Light Freezing Fog
7:50 AM 17.6 °F 12.3 °F 15.8 °F 93% 30.42 in 0.5 mi WSW 3.5 mph - N/A Fog Light Freezing Fog
8:00 AM 15 °F - 13 °F 91% 30.46 in 0 mi West 6.7 mph - - Fog Fog
8:20 AM 17.6 °F 10.7 °F 15.8 °F 93% 30.39 in 5.0 mi WSW 4.6 mph - N/A Fog Fog
8:50 AM 15.8 °F 8.6 °F 14.0 °F 93% 30.39 in 5.0 mi SW 4.6 mph - N/A Fog Fog
9:20 AM 21.2 °F 13.6 °F 21.2 °F 100% 30.39 in 5.6 mi SW 5.8 mph - N/A   Unknown
9:50 AM 24.8 °F 17.9 °F 23.0 °F 93% 30.36 in - SW 5.8 mph - N/A   Clear
10:20 AM 24.8 °F 17.9 °F 24.8 °F 100% 30.36 in - SW 5.8 mph - N/A   Clear
10:50 AM 26.6 °F 19.1 °F 26.6 °F 100% 30.36 in - SW 6.9 mph - N/A   Clear
11:20 AM 28.4 °F 20.4 °F 26.6 °F 93% 30.33 in - SW 8.1 mph - N/A   Clear
11:50 AM 30.2 °F 22.6 °F 28.4 °F 93% 30.33 in - WSW 8.1 mph - N/A   Clear
12:20 PM 32.0 °F 23.6 °F 26.6 °F 80% 30.33 in - SW 10.4 mph - N/A   Clear
12:50 PM 32.0 °F 23.0 °F 26.6 °F 80% 30.30 in - WSW 11.5 mph - N/A   Clear
1:20 PM 33.8 °F 25.8 °F 26.6 °F 75% 30.30 in - WSW 10.4 mph - N/A   Clear
1:50 PM 33.8 °F 26.4 °F 26.6 °F 75% 30.27 in - SW 9.2 mph - N/A   Clear
2:00 PM 33 °F - 28 °F 74% 30.31 in 25 mi WSW 11.2 mph - -   Partly Cloudy
2:20 PM 33.8 °F 24.8 °F 26.6 °F 75% 30.24 in - SW 12.7 mph - N/A   Clear
2:50 PM 33.8 °F 24.8 °F 26.6 °F 75% 30.24 in - WSW 12.7 mph - N/A   Clear
3:20 PM 35.6 °F 27.1 °F 26.6 °F 70% 30.24 in - WSW 12.7 mph - N/A   Clear
3:50 PM 35.6 °F 27.1 °F 26.6 °F 70% 30.21 in - WSW 12.7 mph - N/A   Clear
4:20 PM 35.6 °F 27.1 °F 26.6 °F 70% 30.18 in - WSW 12.7 mph - N/A   Clear
4:50 PM 35.6 °F 27.5 °F 26.6 °F 70% 30.18 in - West 11.5 mph - N/A   Clear
5:20 PM 35.6 °F 28.0 °F 28.4 °F 75% 30.18 in - West 10.4 mph - N/A   Clear
5:50 PM 33.8 °F 26.4 °F 28.4 °F 81% 30.18 in - West 9.2 mph - N/A   Clear
6:20 PM 33.8 °F 25.8 °F 28.4 °F 81% 30.18 in - WSW 10.4 mph - N/A   Clear
6:50 PM 33.8 °F 25.3 °F 28.4 °F 81% 30.18 in - West 11.5 mph - N/A   Clear
7:20 PM 33.8 °F 25.8 °F 28.4 °F 81% 30.18 in - West 10.4 mph - N/A   Clear
7:50 PM 33.8 °F 26.4 °F 28.4 °F 81% 30.18 in - West 9.2 mph - N/A   Clear
8:00 PM 33 °F - 28 °F 75% 30.22 in 31 mi WNW 11.2 mph - -  
8:20 PM 33.8 °F 27.0 °F 26.6 °F 75% 30.21 in - West 8.1 mph - N/A   Clear
8:50 PM 33.8 °F 27.0 °F 26.6 °F 75% 30.21 in - West 8.1 mph - N/A   Clear
9:20 PM 33.8 °F 26.4 °F 26.6 °F 75% 30.21 in - West 9.2 mph - N/A   Clear
9:50 PM 33.8 °F 27.7 °F 26.6 °F 75% 30.21 in - West 6.9 mph - N/A   Clear
10:20 PM 33.8 °F 26.4 °F 26.6 °F 75% 30.21 in - WNW 9.2 mph - N/A   Clear
10:50 PM 33.8 °F 26.4 °F 28.4 °F 81% 30.21 in - WNW 9.2 mph - N/A   Clear
11:20 PM 33.8 °F 26.4 °F 28.4 °F 81% 30.21 in - WNW 9.2 mph - N/A   Clear
11:50 PM 33.8 °F 26.4 °F 28.4 °F 81% 30.21 in - WNW 9.2 mph - N/A   Clear